"Pseudo-MPEC" for ZTF02V5

Created 2019 Feb 20 14:18:08 UT using Find_Orb

Click here for an explanation of pseudo-MPECs

 
 Astrometry: 
     ZTF02V5  C2019 02 08.35444 10 55 29.11 -09 14 10.6    ~292I 20.7 rUNEOCPI41
     ZTF02V5  C2019 02 08.37359 10 55 30.07 -09 14 10.5    ~292I 20.4 rUNEOCPI41
     ZTF02V5  C2019 02 08.37992 10 55 30.35 -09 14 11.0    ~292I 20.6 rUNEOCPI41
     ZTF02V5  C2019 02 08.38308 10 55 30.51 -09 14 10.7    ~292I 20.7 rUNEOCPI41

Station data:
(I41) Palomar Mountain--ZTF  (N33.357340 W116.859780)  US/California. 1.2-m
   f/2.44 Oschin Schmidt + CCD.

Orbital elements:  ZTF02V5
   Perihelion 2019 Mar 3.702874 +/- 39.5 TT = 16:52:08 (JD 2458546.202874)
Epoch 2019 Feb  8.0 TT = JDT 2458522.5   Earth MOID: 0.4457   Ju: 0.4214
M 355.67736134 +/- 27               Ma: 0.0538                AutoNEOCP
n   0.18236770 +/- 0.278            Peri.  334.94238 +/- 80
a   3.07966937 +/- 3.13             Node   190.25597 +/- 40
e   0.5345317 +/- 0.25              Incl.    8.01072 +/- 8
P   5.40                   H 20.4   G  0.15   U 11.9  SR
q 1.43348837 +/- 0.442    Q 4.72585037 +/- 49.5
From 4 observations 2019 Feb. 8 (41.2 min); mean residual 0".17
Residuals in arcseconds: 
190208 I41  .08-  .04-    190208 I41  .15-  .24-    
190208 I41  .28+  .21+    190208 I41  .06-  .07+    

Ephemerides (geocentric):
Date (UTC) HH   RA              Dec         delta   r     elong  mag " sig PA
---- -- -- --  -------------   -----------  ------ ------ -----  --- ---- ---
2019 02 20 14  11 05 26.153   -08 31 58.36  .47618 1.4382 156.6 20.5  70d 174
2019 02 20 15  11 05 27.966   -08 31 40.83  .47605 1.4382 156.6 20.5  70d 174
2019 02 20 16  11 05 29.776   -08 31 23.25  .47592 1.4382 156.7 20.5  70d 174
2019 02 20 17  11 05 31.586   -08 31 05.60  .47580 1.4381 156.7 20.5  70d 174
2019 02 20 18  11 05 33.394   -08 30 47.89  .47567 1.4381 156.7 20.5  70d 174
2019 02 20 19  11 05 35.201   -08 30 30.12  .47555 1.4381 156.8 20.5  70d 174
2019 02 20 20  11 05 37.006   -08 30 12.30  .47542 1.4380 156.8 20.5  70d 175
2019 02 20 21  11 05 38.811   -08 29 54.41  .47530 1.4380 156.9 20.4  70d 175
2019 02 20 22  11 05 40.613   -08 29 36.46  .47517 1.4380 156.9 20.4  70d 175
2019 02 20 23  11 05 42.415   -08 29 18.46  .47505 1.4379 156.9 20.4  70d 175
2019 02 21 00  11 05 44.215   -08 29 00.39  .47492 1.4379 157.0 20.4  70d 175
2019 02 21 01  11 05 46.014   -08 28 42.26  .47480 1.4379 157.0 20.4  71d 175
2019 02 21 02  11 05 47.811   -08 28 24.07  .47467 1.4378 157.0 20.4  71d 175
2019 02 21 03  11 05 49.607   -08 28 05.83  .47455 1.4378 157.1 20.4  71d 175
2019 02 21 04  11 05 51.402   -08 27 47.52  .47443 1.4378 157.1 20.4  71d 175
2019 02 21 05  11 05 53.195   -08 27 29.15  .47430 1.4377 157.1 20.4  71d 175
2019 02 21 06  11 05 54.987   -08 27 10.73  .47418 1.4377 157.2 20.4  71d 175
2019 02 21 07  11 05 56.778   -08 26 52.24  .47406 1.4377 157.2 20.4  71d 175
2019 02 21 08  11 05 58.567   -08 26 33.69  .47394 1.4376 157.2 20.4  71d 175
2019 02 21 09  11 06 00.355   -08 26 15.09  .47381 1.4376 157.3 20.4  71d 175
2019 02 21 10  11 06 02.142   -08 25 56.42  .47369 1.4376 157.3 20.4  71d 175
2019 02 21 11  11 06 03.927   -08 25 37.69  .47357 1.4375 157.3 20.4  71d 175
2019 02 21 12  11 06 05.711   -08 25 18.91  .47345 1.4375 157.4 20.4  71d 175
2019 02 21 13  11 06 07.494   -08 25 00.06  .47333 1.4375 157.4 20.4  71d 175
2019 02 21 14  11 06 09.275   -08 24 41.16  .47321 1.4374 157.4 20.4  71d 175
2019 02 21 15  11 06 11.055   -08 24 22.19  .47309 1.4374 157.5 20.4  71d 175
2019 02 21 16  11 06 12.834   -08 24 03.17  .47297 1.4374 157.5 20.4  71d 175
2019 02 21 17  11 06 14.611   -08 23 44.08  .47284 1.4373 157.5 20.4  71d 175
2019 02 21 18  11 06 16.388   -08 23 24.94  .47273 1.4373 157.6 20.4  71d 175
2019 02 21 19  11 06 18.162   -08 23 05.73  .47261 1.4373 157.6 20.4  71d 175
2019 02 21 20  11 06 19.936   -08 22 46.47  .47249 1.4372 157.6 20.4  71d 175
2019 02 21 21  11 06 21.708   -08 22 27.15  .47237 1.4372 157.7 20.4  72d 175
2019 02 21 22  11 06 23.479   -08 22 07.77  .47225 1.4372 157.7 20.4  72d 175
2019 02 21 23  11 06 25.248   -08 21 48.32  .47213 1.4371 157.7 20.4  72d 175
2019 02 22 00  11 06 27.017   -08 21 28.82  .47201 1.4371 157.8 20.4  72d 175
2019 02 22 01  11 06 28.783   -08 21 09.26  .47189 1.4371 157.8 20.4  72d 175
2019 02 22 02  11 06 30.549   -08 20 49.64  .47178 1.4370 157.8 20.4  72d 175
2019 02 22 03  11 06 32.313   -08 20 29.96  .47166 1.4370 157.9 20.4  72d 175
2019 02 22 04  11 06 34.076   -08 20 10.22  .47154 1.4370 157.9 20.4  72d 175
2019 02 22 05  11 06 35.838   -08 19 50.42  .47142 1.4370 158.0 20.4  72d 175
2019 02 22 06  11 06 37.599   -08 19 30.56  .47131 1.4369 158.0 20.4  72d 175
2019 02 22 07  11 06 39.358   -08 19 10.65  .47119 1.4369 158.0 20.4  72d 175
2019 02 22 08  11 06 41.116   -08 18 50.67  .47107 1.4369 158.1 20.4  72d 175
2019 02 22 09  11 06 42.872   -08 18 30.63  .47096 1.4368 158.1 20.4  72d 175
2019 02 22 10  11 06 44.628   -08 18 10.54  .47084 1.4368 158.1 20.4  72d 175
2019 02 22 11  11 06 46.382   -08 17 50.38  .47073 1.4368 158.2 20.4  72d 175
2019 02 22 12  11 06 48.134   -08 17 30.17  .47061 1.4367 158.2 20.4  72d 175
2019 02 22 13  11 06 49.886   -08 17 09.90  .47050 1.4367 158.2 20.4  72d 175